Location: *
(2.7500°S, 66.6833°W)
Time: 02:38:10
(UTC+00:00)

CZ-4 R/B - Pass Details

Date: 24 May 2024
Orbit: 516 x 570 km, 97.6° (Epoch: 23 June)

Event Time Altitude Azimuth Distance (km) Brightness Sun altitude
Exits shadow 23:49:32 10° 30° (NNE) 1,725 3.8 -21.0°
Drops below altitude 10° 23:49:34 10° 29° (NNE) 1,737 3.8 -21.0°
Sets 23:52:02 0° 13° (NNE) 2,623 4.9 -21.6°
